Content
SEND FEEDBACK

Daily
Averages
Monthly
Summary
United States of America

ROCK HILL, NEW YORK


Home > North America > United States > New York
Elevation: 384 meters     Latitude: 41 35N     Longitude: 074 37W

WEATHER
 
SELECT A DAY
Number of Records: 455,300;   Date Range: 1/1/95 - 12/27/14
 
SHARE

PRINT THIS DATA

[ ← Previous Day ]
WEATHER ALMANAC - 22 JULY, 2014
[ Next Day → ]
[ °F ]   °C
Weather ElementAverageHighLow
Temperature22.2 °C29 °C (3:55 pm)15 °C (5:35 am)
Dewpoint18.7 °C22 °C (5:15 pm)15 °C (5:35 am)
Humidity82 %100 % (1:55 am)54 % (4:15 pm)
Barometer1021.7 hPa1023.7 hPa (7:35 am)1018.6 hPa (10:55 pm)
Wind Speed5.8 km/h16.7 km/h (5:15 pm)
Wind Gust25.9 km/h (6:35 pm)
Weather ElementAverage
Visibility13.7 km
Wind DirectionSE (130.4 °)

Weather ElementTotal
Precipitation---
Cooling Degree Days3.7 (Base 18.3)
Growing Degree Days12 (Base 10)
Averaged from 69 records on 22 July, 2014
WEATHER CONDITIONS BREAKOUT
WIND DIRECTION BREAKOUT
WEATHER BY HOUR - 22 JULY, 2014
[ °F ]   °C
Local TimeTemperatureDewpointHumidityBarometerVisibilityWind DirectionWind SpeedGust SpeedPrecipitationEventsConditions
12:35 AM18 °C17 °C94 %1023.4 hPa16.1 kmCalmClear
12:55 AM18 °C17 °C94 %1023.4 hPa16.1 kmCalmMostly Cloudy
1:15 AM18 °C17 °C94 %1023.4 hPa16.1 kmCalmOvercast
1:35 AM18 °C17 °C94 %1023 hPa14.5 kmCalmOvercast
1:55 AM17 °C17 °C100 %1023 hPa14.5 kmCalmPartly Cloudy
2:15 AM17 °C17 °C100 %1023 hPa12.9 kmCalmClear
2:35 AM17 °C16 °C94 %1023 hPa16.1 kmCalmClear
2:55 AM17 °C17 °C100 %1023 hPa14.5 kmCalmClear
3:15 AM17 °C17 °C100 %1022.7 hPa14.5 kmCalmClear
3:35 AM17 °C16 °C94 %1022.7 hPa11.3 kmCalmClear
3:55 AM17 °C16 °C94 %1022.7 hPa16.1 kmCalmClear
4:15 AM16 °C16 °C100 %1023 hPa6.4 kmCalmClear
4:35 AM16 °C16 °C100 %1023 hPa16.1 kmCalmClear
4:55 AM16 °C16 °C100 %1023 hPa1.9 kmCalmClear
5:15 AM16 °C16 °C100 %1023 hPa14.5 kmCalmClear
5:35 AM15 °C15 °C100 %1023 hPa0.8 kmCalmOvercast
5:55 AM15 °C15 °C100 %1023 hPa1.3 kmCalmMostly Cloudy
6:15 AM15 °C15 °C100 %1023 hPa0.3 kmCalmOvercast
6:35 AM16 °C16 °C100 %1023.4 hPa0.3 kmCalmOvercast
6:55 AM16 °C16 °C100 %1023.4 hPa0.3 kmCalmOvercast
7:15 AM17 °C17 °C100 %1023.4 hPa0.8 kmCalmOvercast
7:35 AM17 °C17 °C100 %1023.7 hPa1.3 kmCalmOvercast
7:55 AM18 °C18 °C100 %1023.7 hPa3.2 kmCalmMostly Cloudy
8:15 AM18 °C18 °C100 %1023.7 hPa16.1 kmCalmPartly Cloudy
8:35 AM19 °C18 °C94 %1023.4 hPa16.1 kmCalmClear
8:55 AM21 °C19 °C88 %1023.4 hPa16.1 kmWest (260°)5.6 km/hClear
9:15 AM22 °C19 °C83 %1023 hPa16.1 kmWest (280°)7.4 km/hClear
9:35 AM22 °C19 °C83 %1023 hPa16.1 kmWest (280°)5.6 km/hClear
9:55 AM23 °C19 °C78 %1023 hPa16.1 kmWest (260°)9.3 km/hClear
10:15 AM23 °C19 °C78 %1022.7 hPa16.1 kmSW (230°)9.3 km/hClear
10:35 AM24 °C20 °C78 %1022.7 hPa16.1 kmCalmMostly Cloudy
10:55 AM24 °C20 °C78 %1022.7 hPa16.1 kmNW (310°)7.4 km/hMostly Cloudy
11:15 AM25 °C20 °C74 %1022.7 hPa16.1 kmWSW (240°)9.3 km/hPartly Cloudy
11:35 AM26 °C20 °C69 %1022.7 hPa16.1 kmWNW (290°)11.1 km/hMostly Cloudy
11:55 AM25 °C20 °C74 %1022.4 hPa16.1 kmWSW (250°)9.3 km/hMostly Cloudy
12:15 PM26 °C20 °C69 %1022.4 hPa16.1 kmNW (310°)13 km/hMostly Cloudy
12:35 PM26 °C20 °C69 %1022 hPa16.1 kmCalmMostly Cloudy
1:15 PM27 °C20 °C65 %1021.7 hPa11.3 kmSW (230°)9.3 km/hMostly Cloudy
1:35 PM27 °C19 °C61 %1021.3 hPa16.1 kmSW (220°)5.6 km/hMostly Cloudy
1:55 PM27 °C20 °C65 %1021.3 hPa16.1 kmWSW (250°)9.3 km/hMostly Cloudy
2:15 PM28 °C19 °C58 %1021 hPa16.1 kmWest (270°)9.3 km/hMostly Cloudy
2:35 PM28 °C19 °C58 %1021 hPa16.1 kmWest (270°)14.8 km/hMostly Cloudy
2:55 PM28 °C19 °C58 %1020.7 hPa16.1 kmSSW (210°)14.8 km/hScattered Clouds
3:15 PM28 °C19 °C58 %1020.7 hPa16.1 kmWSW (250°)11.1 km/hPartly Cloudy
3:35 PM28 °C19 °C58 %1020.3 hPa16.1 kmWest (270°)13 km/hClear
3:55 PM29 °C19 °C55 %1020.3 hPa16.1 kmSW (230°)11.1 km/hPartly Cloudy
4:15 PM28 °C18 °C54 %1020 hPa16.1 kmSW (230°)13 km/hPartly Cloudy
4:35 PM29 °C19 °C55 %1019.6 hPa16.1 kmSW (220°)14.8 km/hPartly Cloudy
4:55 PM28 °C18 °C54 %1019.6 hPa16.1 kmSW (230°)9.3 km/hScattered Clouds
5:15 PM28 °C22 °C70 %1019.6 hPa16.1 kmSSE (160°)16.7 km/hMostly Cloudy
5:35 PM28 °C21 °C66 %1019.3 hPa16.1 kmSouth (190°)11.1 km/hPartly Cloudy
5:55 PM27 °C21 °C70 %1019.3 hPa16.1 kmSSW (210°)13 km/hMostly Cloudy
6:15 PM27 °C21 °C70 %1019.6 hPa16.1 kmSSW (200°)14.8 km/hMostly Cloudy
6:35 PM26 °C21 °C74 %1019.6 hPa16.1 kmSSW (200°)9.3 km/h25.9 km/hPartly Cloudy
6:55 PM26 °C21 °C74 %1019.6 hPa16.1 kmSSW (210°)13 km/hPartly Cloudy
7:15 PM26 °C21 °C74 %1019.6 hPa16.1 kmSouth (190°)13 km/hScattered Clouds
7:35 PM26 °C21 °C74 %1019.3 hPa16.1 kmSSW (200°)14.8 km/hPartly Cloudy
7:55 PM25 °C21 °C78 %1019.6 hPa16.1 kmSSW (200°)11.1 km/hPartly Cloudy
8:15 PM24 °C21 °C83 %1019.6 hPa16.1 kmSSW (210°)9.3 km/hPartly Cloudy
8:35 PM24 °C20 °C78 %1019.6 hPa16.1 kmSSW (210°)7.4 km/hPartly Cloudy
8:55 PM24 °C20 °C78 %1019.3 hPa16.1 kmSSW (200°)7.4 km/hClear
9:15 PM23 °C20 °C83 %1019.3 hPa16.1 kmSouth (190°)7.4 km/hClear
9:35 PM23 °C20 °C83 %1019.3 hPa16.1 kmCalmClear
10:15 PM22 °C20 °C88 %1019.3 hPa16.1 kmSSW (210°)7.4 km/hClear
10:35 PM22 °C20 °C88 %1019.3 hPa16.1 kmSSW (210°)5.6 km/hClear
10:55 PM22 °C20 °C88 %1018.6 hPa16.1 kmSSW (210°)7.4 km/hClear
11:15 PM22 °C20 °C88 %1018.6 hPa16.1 kmSSW (210°)7.4 km/hClear
11:35 PM22 °C20 °C88 %1018.6 hPa16.1 kmCalmClear
11:55 PM22 °C20 °C88 %1018.6 hPa16.1 kmCalmClear
Hourly data recorded from KMSV, located 0 kilometers away from Rock Hill, New York







STORIES FROM OUR PARTNERS